QFA544 YSSY-YBBN

Flight info

Callsign QFA544
Flight time 1h 15m
Altitude 37000
Route OLSEM Y193 BANDA H252 BN
Aircraft A21N/M-SDE3FGHIRWY/LB1

Departure

Time 2026-05-06 10:54
Airport Sydney Kingsford Smith International Airport (YSSY)

Arrival

Time 2026-05-06 12:09
Airport Brisbane International Airport (YBBN)
Time Latitude Longitude Altitude Speed Heading
2026-05-06 10:33 -33.93160 151.17631 28 ft 0 kts 114°
2026-05-06 10:41 -33.93155 151.17619 28 ft 2 kts 114°
2026-05-06 10:41 -33.93149 151.17604 28 ft 2 kts 114°
2026-05-06 10:41 -33.93143 151.17587 28 ft 2 kts 114°
2026-05-06 10:41 -33.93137 151.17570 28 ft 2 kts 110°
2026-05-06 10:42 -33.93131 151.17554 28 ft 2 kts 114°
2026-05-06 10:42 -33.93125 151.17537 28 ft 2 kts 113°
2026-05-06 10:42 -33.93121 151.17525 28 ft 0 kts 128°
2026-05-06 10:42 -33.93116 151.17522 28 ft 1 kts 171°
2026-05-06 10:43 -33.93113 151.17522 28 ft 0 kts 168°
2026-05-06 10:45 -33.93124 151.17525 28 ft 8 kts 166°
2026-05-06 10:45 -33.93205 151.17548 28 ft 12 kts 167°
2026-05-06 10:45 -33.93294 151.17570 28 ft 13 kts 168°
2026-05-06 10:46 -33.93415 151.17593 28 ft 18 kts 185°
2026-05-06 10:46 -33.93547 151.17603 28 ft 20 kts 167°
2026-05-06 10:46 -33.93695 151.17671 28 ft 24 kts 156°
2026-05-06 10:46 -33.93847 151.17746 28 ft 24 kts 144°
2026-05-06 10:47 -33.94025 151.17813 28 ft 34 kts 168°
2026-05-06 10:47 -33.94258 151.17873 28 ft 32 kts 168°
2026-05-06 10:47 -33.94473 151.17897 28 ft 27 kts 198°
2026-05-06 10:47 -33.94675 151.17923 28 ft 32 kts 167°
2026-05-06 10:48 -33.94901 151.17982 28 ft 33 kts 167°
2026-05-06 10:48 -33.95095 151.18074 28 ft 28 kts 101°
2026-05-06 10:48 -33.95079 151.18213 28 ft 13 kts 77°
2026-05-06 10:48 -33.95075 151.18236 28 ft 0 kts 77°
2026-05-06 10:49 -33.95074 151.18240 28 ft 3 kts 77°
2026-05-06 10:49 -33.95061 151.18312 28 ft 11 kts 78°
2026-05-06 10:49 -33.95042 151.18451 28 ft 23 kts 100°
2026-05-06 10:49 -33.95169 151.18605 28 ft 26 kts 137°
2026-05-06 10:50 -33.95316 151.18720 28 ft 24 kts 162°
2026-05-06 10:50 -33.95482 151.18765 28 ft 23 kts 167°
2026-05-06 10:50 -33.95633 151.18805 28 ft 17 kts 167°
2026-05-06 10:50 -33.95754 151.18835 28 ft 17 kts 167°
2026-05-06 10:51 -33.95875 151.18869 28 ft 17 kts 166°
2026-05-06 10:51 -33.95992 151.18901 28 ft 17 kts 174°
2026-05-06 10:51 -33.96111 151.18927 28 ft 17 kts 167°
2026-05-06 10:51 -33.96227 151.18959 28 ft 16 kts 168°
2026-05-06 10:52 -33.96341 151.18988 28 ft 16 kts 168°
2026-05-06 10:52 -33.96457 151.19019 28 ft 16 kts 167°
2026-05-06 10:52 -33.96572 151.19049 28 ft 16 kts 171°
2026-05-06 10:52 -33.96684 151.19078 28 ft 15 kts 152°
2026-05-06 10:53 -33.96702 151.19157 28 ft 0 kts 55°
2026-05-06 10:53 -33.96698 151.19162 28 ft 4 kts 45°
2026-05-06 10:53 -33.96634 151.19196 28 ft 11 kts 17°
2026-05-06 10:53 -33.96520 151.19218 28 ft 28 kts 358°
2026-05-06 10:54 -33.96029 151.19102 28 ft 113 kts 348°
2026-05-06 10:54 -33.95043 151.18846 133 ft 167 kts 347°
2026-05-06 10:54 -33.93933 151.18578 982 ft 164 kts 355°
2026-05-06 10:54 -33.92907 151.18965 1828 ft 162 kts 45°
2026-05-06 10:55 -33.92359 151.20157 2464 ft 169 kts 67°
2026-05-06 10:55 -33.91698 151.21358 2835 ft 183 kts 39°
2026-05-06 10:55 -33.90556 151.22182 3226 ft 199 kts 28°
2026-05-06 10:55 -33.89280 151.22980 3621 ft 215 kts 28°
2026-05-06 10:56 -33.87894 151.23915 3917 ft 240 kts 31°
2026-05-06 10:56 -33.86424 151.24983 4376 ft 258 kts 32°
2026-05-06 10:56 -33.84876 151.26157 5099 ft 265 kts 33°
2026-05-06 10:56 -33.83508 151.27606 5864 ft 268 kts 54°
2026-05-06 10:57 -33.82717 151.29625 6590 ft 274 kts 71°
2026-05-06 10:57 -33.82180 151.31822 7283 ft 279 kts 73°
2026-05-06 10:57 -33.81645 151.34080 7937 ft 284 kts 72°
2026-05-06 10:57 -33.81056 151.36342 8597 ft 288 kts 65°
2026-05-06 10:58 -33.80004 151.38361 9229 ft 289 kts 50°
2026-05-06 10:58 -33.78699 151.40212 9865 ft 293 kts 47°
2026-05-06 10:58 -33.77341 151.42076 10450 ft 300 kts 47°
2026-05-06 10:58 -33.75947 151.44031 10779 ft 315 kts 47°
2026-05-06 10:59 -33.74508 151.46097 11152 ft 329 kts 49°
2026-05-06 10:59 -33.73051 151.48228 11722 ft 333 kts 49°
2026-05-06 10:59 -33.71592 151.50388 12339 ft 336 kts 49°
2026-05-06 10:59 -33.70121 151.52573 12954 ft 338 kts 49°
2026-05-06 11:00 -33.68636 151.54771 13517 ft 342 kts 49°
2026-05-06 11:00 -33.67128 151.56999 14062 ft 345 kts 49°
2026-05-06 11:00 -33.65585 151.59175 14582 ft 348 kts 44°
2026-05-06 11:00 -33.63799 151.61162 15127 ft 350 kts 37°
2026-05-06 11:01 -33.61837 151.62857 15683 ft 351 kts 31°
2026-05-06 11:01 -33.59783 151.64468 16239 ft 354 kts 30°
2026-05-06 11:01 -33.57716 151.66063 16785 ft 357 kts 29°
2026-05-06 11:01 -33.55611 151.67697 17333 ft 359 kts 29°
2026-05-06 11:02 -33.53525 151.69327 17859 ft 362 kts 29°
2026-05-06 11:02 -33.51409 151.70962 18366 ft 364 kts 26°
2026-05-06 11:02 -33.49166 151.72357 18869 ft 364 kts 19°
2026-05-06 11:02 -33.46797 151.73404 19362 ft 363 kts 12°
2026-05-06 11:03 -33.44354 151.74225 19849 ft 364 kts 10°
2026-05-06 11:03 -33.41920 151.74997 20318 ft 367 kts 10°
2026-05-06 11:03 -33.39427 151.75787 20789 ft 369 kts 10°
2026-05-06 11:03 -33.36928 151.76587 21244 ft 372 kts 10°
2026-05-06 11:04 -33.34431 151.77390 21686 ft 374 kts 10°
2026-05-06 11:04 -33.31913 151.78201 22121 ft 377 kts 10°
2026-05-06 11:04 -33.29366 151.79024 22550 ft 379 kts 10°
2026-05-06 11:04 -33.26836 151.79840 22959 ft 381 kts 10°
2026-05-06 11:05 -33.24252 151.80673 23357 ft 384 kts 10°
2026-05-06 11:05 -33.21685 151.81502 23748 ft 386 kts 10°
2026-05-06 11:05 -33.19059 151.82347 24142 ft 389 kts 10°
2026-05-06 11:05 -33.16445 151.83189 24525 ft 391 kts
2026-05-06 11:06 -33.13839 151.84029 24904 ft 393 kts
2026-05-06 11:06 -33.11176 151.84885 25282 ft 395 kts
2026-05-06 11:06 -33.08509 151.85744 25652 ft 397 kts
2026-05-06 11:06 -33.05845 151.86598 26012 ft 399 kts
2026-05-06 11:07 -33.03129 151.87471 26368 ft 402 kts
2026-05-06 11:07 -33.00456 151.88330 26713 ft 404 kts
2026-05-06 11:07 -32.97723 151.89206 27058 ft 406 kts
2026-05-06 11:07 -32.94996 151.90080 27390 ft 408 kts
2026-05-06 11:08 -32.92244 151.90962 27723 ft 409 kts
2026-05-06 11:08 -32.89506 151.91840 28049 ft 411 kts
2026-05-06 11:08 -32.86733 151.92726 28376 ft 413 kts
2026-05-06 11:08 -32.83930 151.93622 28699 ft 414 kts
2026-05-06 11:09 -32.81148 151.94510 29018 ft 416 kts
2026-05-06 11:09 -32.78361 151.95399 29353 ft 418 kts
2026-05-06 11:09 -32.75547 151.96297 29686 ft 419 kts
2026-05-06 11:09 -32.72717 151.97198 30011 ft 421 kts
2026-05-06 11:10 -32.69864 151.98108 30331 ft 423 kts
2026-05-06 11:10 -32.67018 151.99013 30646 ft 425 kts
2026-05-06 11:10 -32.64157 151.99924 30950 ft 426 kts
2026-05-06 11:10 -32.61296 152.00833 31230 ft 428 kts
2026-05-06 11:11 -32.58413 152.01749 31510 ft 429 kts
2026-05-06 11:11 -32.55529 152.02663 31792 ft 431 kts
2026-05-06 11:11 -32.52621 152.03584 32069 ft 432 kts
2026-05-06 11:11 -32.49710 152.04507 32333 ft 434 kts
2026-05-06 11:12 -32.46791 152.05434 32599 ft 435 kts
2026-05-06 11:12 -32.43901 152.06351 32865 ft 436 kts
2026-05-06 11:12 -32.40971 152.07280 33127 ft 437 kts
2026-05-06 11:12 -32.38041 152.08208 33435 ft 436 kts
2026-05-06 11:13 -32.35081 152.09146 33778 ft 435 kts
2026-05-06 11:13 -32.32178 152.10065 34102 ft 434 kts
2026-05-06 11:13 -32.29278 152.10980 34411 ft 433 kts
2026-05-06 11:13 -32.26352 152.11903 34718 ft 432 kts
2026-05-06 11:14 -32.23450 152.12819 35023 ft 431 kts
2026-05-06 11:14 -32.20561 152.13728 35327 ft 430 kts
2026-05-06 11:14 -32.17688 152.14633 35592 ft 429 kts
2026-05-06 11:14 -32.14777 152.15547 35803 ft 430 kts
2026-05-06 11:15 -32.11900 152.16450 35988 ft 431 kts
2026-05-06 11:15 -32.08998 152.17362 36169 ft 432 kts
2026-05-06 11:15 -32.06095 152.18271 36340 ft 433 kts
2026-05-06 11:15 -32.03188 152.19182 36490 ft 434 kts
2026-05-06 11:16 -32.00234 152.20108 36639 ft 435 kts
2026-05-06 11:16 -31.97317 152.21021 36783 ft 436 kts
2026-05-06 11:16 -31.94392 152.21936 36889 ft 438 kts
2026-05-06 11:17 -31.88452 152.23793 37065 ft 439 kts
2026-05-06 11:17 -31.82538 152.25641 37094 ft 439 kts
2026-05-06 11:18 -31.76638 152.27484 37094 ft 439 kts
2026-05-06 11:18 -31.70707 152.29335 37094 ft 439 kts
2026-05-06 11:19 -31.64839 152.31160 37088 ft 439 kts
2026-05-06 11:19 -31.58926 152.32996 37089 ft 439 kts
2026-05-06 11:20 -31.53007 152.34833 37091 ft 439 kts
2026-05-06 11:20 -31.47093 152.36665 37093 ft 439 kts
2026-05-06 11:21 -31.41169 152.38498 37095 ft 439 kts
2026-05-06 11:21 -31.35260 152.40326 37096 ft 439 kts
2026-05-06 11:22 -31.29368 152.42143 37096 ft 439 kts
2026-05-06 11:22 -31.23444 152.43968 37096 ft 440 kts
2026-05-06 11:23 -31.17521 152.45793 37097 ft 440 kts
2026-05-06 11:23 -31.11619 152.47609 37099 ft 440 kts
2026-05-06 11:24 -31.05663 152.49437 37100 ft 440 kts
2026-05-06 11:24 -30.99754 152.51250 37101 ft 440 kts
2026-05-06 11:25 -30.93852 152.53056 37103 ft 440 kts
2026-05-06 11:25 -30.87917 152.54872 37107 ft 440 kts
2026-05-06 11:26 -30.81957 152.56694 37108 ft 440 kts
2026-05-06 11:26 -30.76087 152.58711 37108 ft 443 kts
2026-05-06 11:27 -30.70185 152.60857 37109 ft 443 kts
2026-05-06 11:27 -30.64263 152.63005 37112 ft 443 kts
2026-05-06 11:28 -30.58385 152.65135 37115 ft 443 kts
2026-05-06 11:28 -30.52513 152.67259 37118 ft 443 kts
2026-05-06 11:29 -30.46621 152.69388 37122 ft 443 kts
2026-05-06 11:29 -30.40734 152.71512 37127 ft 444 kts
2026-05-06 11:30 -30.34803 152.73648 37133 ft 444 kts
2026-05-06 11:30 -30.28914 152.75768 37139 ft 444 kts
2026-05-06 11:31 -30.22936 152.77918 37145 ft 444 kts
2026-05-06 11:31 -30.17100 152.80000 37141 ft 444 kts
2026-05-06 11:32 -30.11264 152.82104 37138 ft 444 kts
2026-05-06 11:32 -30.05349 152.84225 37133 ft 444 kts
2026-05-06 11:33 -29.99440 152.86322 37129 ft 444 kts
2026-05-06 11:33 -29.93456 152.88464 37124 ft 444 kts
2026-05-06 11:34 -29.87568 152.90567 37107 ft 444 kts
2026-05-06 11:34 -29.81634 152.92680 37106 ft 445 kts
2026-05-06 11:35 -29.75735 152.94777 37119 ft 445 kts
2026-05-06 11:35 -29.69816 152.96880 37120 ft 445 kts
2026-05-06 11:36 -29.63874 152.98988 37119 ft 445 kts
2026-05-06 11:36 -29.57954 153.01088 37116 ft 445 kts
2026-05-06 11:37 -29.52033 153.03185 37113 ft 445 kts
2026-05-06 11:37 -29.46118 153.05276 37111 ft 445 kts
2026-05-06 11:38 -29.40186 153.07373 37109 ft 445 kts
2026-05-06 11:38 -29.34284 153.09456 37108 ft 445 kts
2026-05-06 11:39 -29.28326 153.11556 37106 ft 445 kts
2026-05-06 11:39 -29.22402 153.13640 37105 ft 445 kts
2026-05-06 11:40 -29.16494 153.15717 37104 ft 445 kts
2026-05-06 11:40 -29.10564 153.17799 37103 ft 445 kts
2026-05-06 11:41 -29.04637 153.19879 37102 ft 446 kts
2026-05-06 11:41 -28.98686 153.21965 37075 ft 447 kts
2026-05-06 11:41 -28.95720 153.23001 36603 ft 450 kts
2026-05-06 11:42 -28.92699 153.24056 35981 ft 452 kts
2026-05-06 11:42 -28.89719 153.25096 35340 ft 455 kts
2026-05-06 11:42 -28.86663 153.26163 34674 ft 458 kts
2026-05-06 11:42 -28.83618 153.27223 33984 ft 461 kts
2026-05-06 11:43 -28.83146 153.27388 33874 ft 462 kts
2026-05-06 11:43 -28.77503 153.29358 32672 ft 462 kts
2026-05-06 11:44 -28.71407 153.31497 31697 ft 453 kts
2026-05-06 11:44 -28.68416 153.32544 31218 ft 449 kts
2026-05-06 11:44 -28.65467 153.33862 30715 ft 463 kts 15°
2026-05-06 11:44 -28.62725 153.35887 30256 ft 480 kts 27°
2026-05-06 11:45 -28.60320 153.38582 29805 ft 495 kts 40°
2026-05-06 11:45 -28.58305 153.41879 29346 ft 503 kts 49°
2026-05-06 11:45 -28.56343 153.45138 28861 ft 486 kts 38°
2026-05-06 11:45 -28.55082 153.46490 26517 ft 468 kts 32°
2026-05-06 11:46 -28.55042 153.46526 26511 ft 467 kts 32°
2026-05-06 11:46 -28.52525 153.48111 26096 ft 444 kts 13°
2026-05-06 11:46 -28.49620 153.48721 25393 ft 423 kts 356°
2026-05-06 11:46 -28.46681 153.48738 24894 ft 415 kts 353°
2026-05-06 11:47 -28.43814 153.48737 24415 ft 412 kts 354°
2026-05-06 11:47 -28.40946 153.48804 23876 ft 409 kts 355°
2026-05-06 11:47 -28.38116 153.48929 23325 ft 406 kts 356°
2026-05-06 11:47 -28.35298 153.49095 22770 ft 402 kts 357°
2026-05-06 11:48 -28.32523 153.49283 22358 ft 394 kts 357°
2026-05-06 11:48 -28.29791 153.49480 21977 ft 386 kts 357°
2026-05-06 11:48 -28.27126 153.49675 21596 ft 377 kts 357°
2026-05-06 11:48 -28.24538 153.49867 21307 ft 367 kts 357°
2026-05-06 11:49 -28.22025 153.50055 21021 ft 357 kts 357°
2026-05-06 11:49 -28.19546 153.50226 20764 ft 348 kts 355°
2026-05-06 11:49 -28.17124 153.50197 20518 ft 343 kts 351°
2026-05-06 11:49 -28.14774 153.49936 20274 ft 339 kts 346°
2026-05-06 11:50 -28.12440 153.49487 20027 ft 336 kts 344°
2026-05-06 11:50 -28.10152 153.49011 19787 ft 335 kts 344°
2026-05-06 11:50 -28.07866 153.48534 19547 ft 334 kts 344°
2026-05-06 11:50 -28.05582 153.48058 19306 ft 333 kts 344°
2026-05-06 11:51 -28.03311 153.47586 19067 ft 331 kts 344°
2026-05-06 11:51 -28.01031 153.47113 18829 ft 330 kts 344°
2026-05-06 11:51 -27.98793 153.46648 18597 ft 329 kts 345°
2026-05-06 11:51 -27.96524 153.46176 18314 ft 328 kts 345°
2026-05-06 11:52 -27.94279 153.45714 17954 ft 325 kts 345°
2026-05-06 11:52 -27.92073 153.45258 17561 ft 323 kts 345°
2026-05-06 11:52 -27.89864 153.44803 17154 ft 321 kts 345°
2026-05-06 11:52 -27.87639 153.44342 16738 ft 319 kts 345°
2026-05-06 11:53 -27.85477 153.43893 16330 ft 317 kts 345°
2026-05-06 11:53 -27.83303 153.43443 15908 ft 316 kts 345°
2026-05-06 11:53 -27.81130 153.42993 15484 ft 314 kts 345°
2026-05-06 11:53 -27.78976 153.42549 15060 ft 313 kts 345°
2026-05-06 11:54 -27.76859 153.42111 14641 ft 312 kts 345°
2026-05-06 11:54 -27.74727 153.41672 14216 ft 310 kts 346°
2026-05-06 11:54 -27.72599 153.41234 13793 ft 308 kts 346°
2026-05-06 11:54 -27.70475 153.40797 13373 ft 308 kts 346°
2026-05-06 11:55 -27.68378 153.40366 12960 ft 307 kts 346°
2026-05-06 11:55 -27.66285 153.39937 12551 ft 306 kts 347°
2026-05-06 11:55 -27.64178 153.39616 12144 ft 306 kts 352°
2026-05-06 11:55 -27.62021 153.39526 11936 ft 308 kts 358°
2026-05-06 11:56 -27.59887 153.39603 11946 ft 312 kts 360°
2026-05-06 11:56 -27.57691 153.39702 11958 ft 314 kts
2026-05-06 11:56 -27.55497 153.39806 11969 ft 315 kts
2026-05-06 11:56 -27.53287 153.39911 11970 ft 316 kts
2026-05-06 11:57 -27.51087 153.40013 11703 ft 317 kts
2026-05-06 11:57 -27.48887 153.40115 11285 ft 316 kts
2026-05-06 11:57 -27.46702 153.40216 10873 ft 314 kts
2026-05-06 11:57 -27.44512 153.40318 10462 ft 313 kts
2026-05-06 11:58 -27.42332 153.40420 10157 ft 307 kts
2026-05-06 11:58 -27.40231 153.40517 10031 ft 300 kts
2026-05-06 11:58 -27.38160 153.40611 9827 ft 297 kts
2026-05-06 11:58 -27.36058 153.40706 9247 ft 302 kts
2026-05-06 11:59 -27.33954 153.40801 9007 ft 293 kts
2026-05-06 11:59 -27.31965 153.40892 8966 ft 280 kts
2026-05-06 11:59 -27.30017 153.40981 8649 ft 279 kts
2026-05-06 11:59 -27.28099 153.41066 8271 ft 279 kts
2026-05-06 12:00 -27.26152 153.41156 7895 ft 278 kts
2026-05-06 12:00 -27.24216 153.41240 7538 ft 276 kts
2026-05-06 12:00 -27.22298 153.41328 7188 ft 274 kts
2026-05-06 12:00 -27.20409 153.41333 6824 ft 273 kts 351°
2026-05-06 12:01 -27.18640 153.40614 6454 ft 270 kts 327°
2026-05-06 12:01 -27.17160 153.39307 6118 ft 268 kts 320°
2026-05-06 12:01 -27.15745 153.37953 5773 ft 267 kts 320°
2026-05-06 12:01 -27.14352 153.36621 5535 ft 260 kts 320°
2026-05-06 12:02 -27.13151 153.35156 5383 ft 250 kts 297°
2026-05-06 12:02 -27.12850 153.33319 5182 ft 244 kts 264°
2026-05-06 12:02 -27.13405 153.31529 4882 ft 243 kts 242°
2026-05-06 12:02 -27.14185 153.29868 4586 ft 242 kts 243°
2026-05-06 12:03 -27.14949 153.28174 4287 ft 241 kts 243°
2026-05-06 12:03 -27.15683 153.26515 4149 ft 234 kts 240°
2026-05-06 12:03 -27.16690 153.25185 4064 ft 220 kts 213°
2026-05-06 12:03 -27.18029 153.24362 4038 ft 219 kts 203°
2026-05-06 12:04 -27.19414 153.23668 3835 ft 218 kts 202°
2026-05-06 12:04 -27.20788 153.22965 3552 ft 215 kts 204°
2026-05-06 12:04 -27.22137 153.22229 3292 ft 212 kts 205°
2026-05-06 12:04 -27.23403 153.21507 3089 ft 196 kts 205°
2026-05-06 12:05 -27.24599 153.20819 2798 ft 187 kts 205°
2026-05-06 12:05 -27.25709 153.20177 2574 ft 175 kts 205°
2026-05-06 12:05 -27.26766 153.19562 2320 ft 163 kts 205°
2026-05-06 12:05 -27.27738 153.19000 2091 ft 152 kts 204°
2026-05-06 12:06 -27.28667 153.18471 1895 ft 142 kts 204°
2026-05-06 12:06 -27.29517 153.17982 1708 ft 137 kts 204°
2026-05-06 12:06 -27.30373 153.17490 1553 ft 137 kts 204°
2026-05-06 12:06 -27.31198 153.17013 1387 ft 136 kts 204°
2026-05-06 12:07 -27.32045 153.16525 1212 ft 136 kts 205°
2026-05-06 12:07 -27.32877 153.16040 1039 ft 136 kts 205°
2026-05-06 12:07 -27.33722 153.15555 838 ft 135 kts 205°
2026-05-06 12:07 -27.34560 153.15080 634 ft 134 kts 205°
2026-05-06 12:08 -27.35399 153.14613 470 ft 134 kts 206°
2026-05-06 12:08 -27.36236 153.14130 306 ft 134 kts 207°
2026-05-06 12:08 -27.37063 153.13652 137 ft 133 kts 206°
2026-05-06 12:08 -27.37890 153.13184 25 ft 132 kts 206°
2026-05-06 12:09 -27.38572 153.12801 20 ft 69 kts 207°
2026-05-06 12:09 -27.38921 153.12563 22 ft 54 kts 220°
2026-05-06 12:09 -27.39032 153.12410 22 ft 0 kts 234°
2026-05-06 12:09 -27.39035 153.12405 22 ft 1 kts 234°
2026-05-06 12:10 -27.39045 153.12389 22 ft 6 kts 234°
2026-05-06 12:10 -27.39101 153.12294 22 ft 20 kts 237°
2026-05-06 12:10 -27.39102 153.12157 22 ft 19 kts 322°
2026-05-06 12:10 -27.39014 153.12047 22 ft 19 kts 299°
2026-05-06 12:11 -27.38924 153.11957 22 ft 6 kts 356°
2026-05-06 12:11 -27.38893 153.11957 22 ft 0 kts